Hourly Data Report for October 30, 2016

TORONTO CITY
ONTARIO

43°40'00.000" N
79°24'00.000" W
112.50 m
6158355
71508
XTO

Download Data

Hourly Data (October 2016)
Hourly Data Report for October 30, 2016
TIME
LST
Temp Definition
°C
Dew Point Definition
°C
Rel Hum Definition
%
Precip. Amount Definition
mm

Wind Dir Definition
10's deg

Wind Spd Definition
km/h
Visibility Definition
km
Stn Press Definition
kPa
Hmdx Definition


Wind Chill Definition


Weather Definition


00:00 12.2 7.3 72 0.0 LegendMM LegendMM   100.03     LegendNANA
01:00 11.9 7.2 73 0.0 LegendMM LegendMM   100.03     LegendNANA
02:00 11.8 7.3 74 0.0 LegendMM LegendMM   100.00     LegendNANA
03:00 11.6 7.5 76 0.0 LegendMM LegendMM   100.09     LegendNANA
04:00 10.7 7.7 82 0.0 LegendMM LegendMM   100.07     LegendNANA
05:00 10.4 7.1 80 0.0 LegendMM LegendMM   100.07     LegendNANA
06:00 10.0 7.2 83 0.0 LegendMM LegendMM   100.08     LegendNANA
07:00 9.4 7.0 85 0.0 LegendMM LegendMM   100.13     LegendNANA
08:00 9.2 6.2 81 0.0 LegendMM LegendMM   100.20     LegendNANA
09:00 8.6 5.9 83 0.2 LegendMM LegendMM   100.20     LegendNANA
10:00 8.0 5.3 84 0.0 LegendMM LegendMM   100.21     LegendNANA
11:00 7.1 4.9 86 0.3 LegendMM LegendMM   100.26     LegendNANA
12:00 7.2 3.8 79 0.0 LegendMM LegendMM   100.27     LegendNANA
13:00 7.7 3.0 72 0.0 LegendMM LegendMM   100.27     LegendNANA
14:00 8.0 2.1 66 0.0 LegendMM LegendMM   100.30     LegendNANA
15:00 8.4 1.7 63 0.0 LegendMM LegendMM   100.36     LegendNANA
16:00 8.2 1.2 61 0.0 LegendMM LegendMM   100.45     LegendNANA
17:00 7.6 1.4 65 0.0 LegendMM LegendMM   100.53     LegendNANA
18:00 7.4 1.6 67 0.0 LegendMM LegendMM   100.62     LegendNANA
19:00 7.3 1.2 65 0.0 LegendMM LegendMM   100.69     LegendNANA
20:00 6.7 0.7 66 0.0 LegendMM LegendMM   100.77     LegendNANA
21:00 5.9 0.9 70 0.0 LegendMM LegendMM   100.82     LegendNANA
22:00 5.7 0.5 69 0.0 LegendMM LegendMM   100.85     LegendNANA
23:00 5.0 0.6 73 0.0 LegendMM LegendMM   100.88     LegendNANA

Notes on Data Quality.

Legend

  • E = Estimated
  • M = Missing
  • NA = Not Available*
  • [empty] = Indicates an unobserved value
Date modified: